User: anonymous   Login
Location: Nirvana
(45.0297°N, 77.2628°W)
Time: 03:06:33
(UTC-04:00)
Language:

H-2A R/B - Orbit

View from above orbital plane
View from above orbital plane
View from above satellite
View from above satellite

Ground track
Ground track

The orbit data is extracted from the following two-line orbital elements,

1 27601U 02056E   17233.82328882 +.00000038 +00000-0 +28723-4 0  9993
2 27601 098.3715 299.3354 0073420 100.7944 011.3019 14.31792892767200
Epoch (UTC): 21 August 2017 19:45:32
Eccentricity: 0.0073420
inclination: 98.3715°
perigee height: 733 km
apogee height: 838 km
right ascension of ascending node: 299.3354°
argument of perigee: 100.7944°
revolutions per day: 14.31792892
mean anomaly at epoch: 11.3019°
orbit number at epoch: 76720

The dashed part of the orbit path shows where the satellite is in the earth's shadow,  

DLR